Wind_Speed
35 34 34 34 35 38 42 43 42 39 36 27 25 29 26 22 17 15 17 18 17 12 10 14 10 9 11 7 6 10 11 11 13 14 15 14 17 20 22 24 25 24 23 20 18 18 18 19 19
33 36 36 35 38 41 43 45 45 42 40 37 26 26 29 24 22 22 20 21 21 18 15 11 12 14 20 18 12 10 14 14 16 17 17 18 20 22 23 23 24 25 23 20 20 19 20 19 20
33 35 36 38 39 41 42 42 46 45 44 41 38 31 29 28 25 23 23 25 25 23 20 20 23 20 20 20 18 15 14 19 19 18 20 22 23 20 21 22 23 25 23 24 22 23 22 23 24
30 33 37 38 41 44 43 41 42 47 46 48 45 45 46 41 40 39 34 31 31 28 27 24 22 22 21 21 19 19 18 18 20 22 19 23 24 22 25 21 22 22 25 28 24 23 26 27 26
28 30 33 35 37 39 43 45 46 45 47 51 52 49 47 45 43 45 44 39 38 36 37 37 32 27 26 26 25 24 27 26 23 25 25 23 26 18 21 26 28 28 27 30 28 30 34 34 33
29 30 33 33 34 36 41 43 44 45 43 43 46 48 50 50 45 46 45 44 47 47 41 41 40 36 32 32 33 31 28 30 31 29 29 31 31 33 35 33 31 32 34 35 37 38 39 39 41
29 31 33 33 33 35 35 38 42 46 45 45 47 48 50 49 45 48 47 48 48 49 43 41 40 42 43 41 38 36 35 34 34 37 36 36 38 37 38 37 39 42 39 38 35 39 42 43 46
29 30 31 32 31 35 38 39 41 43 45 49 47 49 54 52 48 51 52 52 52 49 47 44 40 42 45 43 42 42 42 40 40 39 40 41 40 40 42 42 42 44 44 45 44 45 47 47 48
27 29 30 31 31 35 38 39 40 40 39 38 42 44 48 54 52 55 55 54 56 53 53 49 44 44 44 44 44 44 45 46 46 47 47 48 46 44 46 46 46 47 49 48 48 49 49 50 52
26 27 28 30 31 34 36 38 39 40 40 40 41 43 45 51 55 55 55 54 53 52 47 44 45 45 45 45 46 47 49 50 48 47 49 51 52 52 50 47 49 49 49 52 52 51 53 54 55
26 26 28 27 30 31 34 37 38 38 40 41 42 42 41 48 52 52 52 55 51 50 54 52 49 49 49 48 47 47 51 52 55 53 52 57 54 56 55 51 52 51 49 50 51 54 58 55 57
28 29 29 29 32 33 34 36 37 38 38 40 43 43 43 47 47 50 50 52 56 55 58 60 52 42 37 38 43 46 47 47 47 45 47 51 54 57 59 59 56 56 55 58 60 61 64 64 67
33 33 33 33 35 38 37 38 41 42 38 38 41 44 44 46 48 50 49 50 54 57 60 54 52 53 46 43 41 45 51 52 51 48 50 52 55 56 57 57 57 56 58 58 59 61 63 65 64
39 39 40 40 42 44 44 45 46 43 42 43 45 46 46 43 47 50 51 50 51 56 58 57 54 55 50 48 45 44 49 53 51 50 46 49 45 46 48 53 54 56 57 59 59 60 59 61 62
46 45 45 47 49 49 52 53 51 47 47 48 50 50 48 43 49 52 50 51 51 54 56 60 58 59 52 52 49 49 47 45 48 52 51 49 45 43 50 51 53 54 55 55 56 57 56 55 56
49 51 52 52 52 51 50 55 55 53 51 52 55 56 53 48 53 54 55 53 55 54 55 52 57 58 54 53 54 55 55 56 50 48 51 52 57 58 60 62 63 63 63 63 60 58 57 56 56
47 49 50 49 50 49 51 54 60 61 59 58 56 57 57 53 54 59 58 58 57 59 61 60 50 54 52 51 52 55 52 54 53 54 57 58 60 61 63 68 69 71 69 64 57 55 59 60 60
44 43 45 48 49 47 48 50 54 63 62 60 59 59 60 56 55 60 60 61 61 61 64 66 72 69 65 71 68 64 56 53 54 58 61 59 57 62 66 68 67 65 62 49 46 48 47 48 51
43 42 41 44 48 45 47 51 57 58 60 64 64 61 61 61 61 63 62 62 63 65 67 68 73 76 74 73 70 73 70 68 65 67 65 65 71 69 66 66 60 52 44 44 46 47 47 45 47
37 38 40 42 45 43 43 48 53 54 57 59 60 65 64 67 64 64 67 67 66 67 70 72 76 79 79 78 75 71 72 67 70 72 70 68 68 71 68 64 58 51 48 44 39 40 40 42 44
37 39 40 39 41 39 37 41 50 51 55 58 59 61 65 65 68 67 63 62 65 67 66 73 76 79 80 82 76 72 73 70 70 75 76 74 72 71 70 71 70 68 66 45 42 44 46 45 40
38 40 38 41 41 39 42 39 48 50 51 52 52 56 62 67 69 69 66 54 55 60 63 63 70 73 75 76 79 79 82 67 52 53 57 61 61 51 63 50 45 43 42 41 41 42 50 50 49
39 41 41 42 43 42 43 44 45 50 52 55 52 53 56 63 66 68 67 60 56 54 60 64 65 59 55 53 56 61 67 72 61 60 48 51 50 51 53 52 52 51 47 49 49 50 56 55 57
44 42 40 41 41 42 45 47 45 47 49 49 54 57 57 62 63 65 66 63 65 68 70 68 59 59 59 59 61 66 63 69 79 74 70 61 55 56 63 66 62 57 50 46 56 62 62 61 57
49 47 45 42 45 45 47 48 50 52 50 51 55 56 56 60 63 55 53 61 64 68 75 79 72 68 71 71 62 60 63 59 63 70 76 74 66 61 62 68 70 70 67 65 60 64 66 67 68
53 53 52 48 47 50 54 51 53 57 58 58 56 59 58 60 55 58 56 60 66 71 74 81 82 88 86 87 83 82 79 78 77 75 73 75 73 72 71 70 70 69 69 67 66 66 70 71 67
57 58 57 57 56 54 57 58 60 62 64 63 60 61 60 62 59 56 55 62 67 70 74 74 64 61 65 70 73 79 82 82 81 78 76 74 71 71 72 74 74 71 70 66 68 71 74 73 73
64 63 64 65 62 60 61 62 65 67 69 69 66 66 63 60 62 55 54 61 62 60 63 64 52 43 75 79 63 65 67 70 73 78 76 73 71 69 68 68 71 74 73 72 73 73 77 79 78
67 69 70 72 70 69 67 68 71 72 72 72 72 74 72 68 64 55 55 63 65 64 62 55 54 61 78 85 79 78 76 75 79 74 74 80 74 75 72 72 69 70 69 65 65 66 72 80 80
74 75 76 77 75 75 73 69 74 75 75 76 74 79 78 77 69 53 58 61 76 73 67 69 71 72 78 78 81 86 82 73 75 78 78 73 77 77 72 73 74 72 70 69 67 65 64 66 70
Wind_Direction
219 223 230 232 232 232 222 219 217 220 218 220 235 247 248 249 234 249 238 237 238 245 266 243 234 235 231 280 267 241 246 254 254 254 255 255 251 253 258 264 271 275 275 278 280 286 292 297 301
225 223 225 229 231 235 225 219 225 223 225 224 216 230 238 236 239 238 242 245 245 241 246 243 228 249 262 264 276 282 249 249 259 252 250 252 252 255 260 263 266 267 273 276 281 291 296 298 299
225 228 228 229 231 237 235 231 230 224 232 236 230 222 235 246 251 245 248 254 251 252 248 246 252 258 252 255 263 267 282 262 267 262 254 249 248 257 268 268 270 275 274 279 283 288 286 293 291
232 229 230 231 234 238 238 236 238 231 229 227 238 240 247 245 246 249 255 254 257 257 264 249 256 252 257 258 262 263 269 276 269 268 261 268 267 276 277 288 291 285 284 280 281 278 282 289 296
236 235 235 233 236 238 241 241 234 234 238 237 240 241 244 247 251 246 253 254 256 260 269 269 263 253 253 264 263 273 272 272 277 265 258 261 268 273 278 287 293 288 284 286 287 286 285 286 289
238 238 239 238 238 238 240 245 244 243 241 244 251 255 253 250 253 255 255 257 252 257 264 264 266 265 262 259 261 265 265 269 270 272 265 260 268 279 282 284 286 289 279 282 280 283 286 287 287
239 239 242 244 244 245 245 245 243 243 247 248 249 251 254 253 254 253 255 256 259 263 265 263 263 263 268 267 262 263 265 267 271 271 270 266 270 276 280 281 283 285 285 284 278 280 285 285 287
245 246 245 243 242 244 243 242 242 241 242 246 251 252 252 253 253 254 255 256 257 259 260 263 265 266 268 272 271 269 266 266 269 269 270 272 274 273 275 278 281 283 281 282 282 283 287 288 290
250 250 249 249 248 246 246 245 246 246 246 248 251 253 257 255 253 252 253 256 259 262 264 260 258 262 268 267 268 267 265 267 269 268 267 268 270 270 272 274 274 276 278 279 281 283 287 288 290
255 258 256 254 254 256 256 251 246 245 244 243 243 247 252 256 257 259 259 258 259 261 258 256 268 269 265 267 266 264 262 264 265 266 267 268 271 273 269 269 274 276 273 276 279 280 283 287 289
256 256 257 258 257 258 260 260 257 250 247 248 246 245 246 253 257 257 256 257 256 256 260 262 264 265 265 264 262 257 258 260 261 260 262 265 268 270 271 268 274 273 275 276 277 278 281 283 284
256 258 259 260 262 261 261 262 263 259 252 251 250 246 250 253 256 258 255 256 256 253 254 259 259 259 256 262 268 259 256 256 261 260 258 260 263 267 265 268 271 268 269 272 275 276 279 279 279
253 258 262 263 268 269 268 267 266 261 260 257 257 249 246 251 252 255 252 251 255 255 256 253 253 254 250 252 259 267 259 256 255 260 262 265 262 264 267 269 269 270 271 272 274 274 276 278 280
258 260 264 270 271 273 272 268 268 266 260 257 256 256 251 252 255 256 256 251 251 253 253 253 253 254 253 258 259 265 261 258 259 264 264 264 260 264 266 268 270 272 273 274 277 278 280 282 284
262 263 264 271 274 276 278 274 270 268 267 263 259 255 253 250 250 253 254 255 252 251 251 252 250 252 252 253 256 262 267 263 263 263 264 257 259 259 268 271 279 277 279 280 282 281 280 282 284
270 271 271 273 273 274 274 276 272 265 263 261 260 259 254 250 253 251 250 250 251 247 242 242 244 245 247 254 258 258 262 264 261 258 263 263 265 265 272 277 286 289 288 289 288 287 288 289 286
272 273 274 274 275 275 275 273 276 273 264 261 258 259 259 256 254 255 253 250 248 249 242 233 238 239 241 249 256 257 257 259 261 263 262 264 266 272 278 280 284 285 288 288 289 290 291 291 291
274 275 277 277 273 273 272 271 270 273 274 270 266 264 259 254 254 257 256 254 251 249 249 242 243 248 249 252 255 252 249 258 260 263 262 265 269 277 281 281 282 285 287 290 290 292 293 291 295
273 272 271 270 274 271 270 270 269 269 271 274 273 269 265 260 255 253 256 257 254 251 252 251 251 254 256 256 256 253 260 263 265 268 271 273 278 280 278 277 277 281 283 295 288 284 287 285 286
275 276 275 276 276 276 275 275 277 275 271 269 269 270 268 266 258 254 254 254 255 254 252 252 253 255 256 257 257 258 265 270 270 272 273 276 276 274 275 275 274 276 282 283 275 276 280 282 285
283 282 282 281 280 280 278 280 282 280 277 275 270 268 269 267 267 263 258 261 263 257 256 254 255 256 257 257 262 266 266 268 275 276 277 276 276 273 274 277 277 275 273 271 274 270 272 273 272
285 284 286 284 282 281 281 280 284 285 284 280 278 271 267 266 264 263 260 253 255 256 259 256 255 260 264 269 266 263 265 267 259 259 261 265 264 279 279 277 280 272 264 257 255 256 260 260 267
285 288 287 289 285 282 283 282 286 290 294 292 287 284 276 268 263 259 258 251 246 255 260 260 262 260 258 257 253 260 253 248 250 254 259 264 262 254 254 259 263 266 270 257 248 249 254 258 262
285 287 290 292 292 287 283 284 289 288 290 293 294 295 291 282 271 262 255 247 246 249 249 248 242 238 239 244 248 247 255 250 250 252 254 255 256 251 250 255 258 256 256 260 249 249 254 255 261
284 286 291 292 291 292 290 287 286 287 290 293 296 298 298 293 282 269 254 246 240 244 243 241 237 244 241 240 243 245 247 253 253 253 253 254 251 250 252 254 255 256 257 254 253 251 252 256 256
284 285 290 291 295 296 297 297 293 290 290 291 293 299 301 301 287 272 261 249 242 247 249 249 247 244 247 247 250 250 249 252 255 257 254 252 252 254 254 254 255 257 254 254 254 253 252 255 256
282 284 288 293 295 297 298 299 296 294 294 295 295 299 299 303 295 272 257 247 241 240 245 254 260 261 263 259 255 257 255 256 255 254 255 253 253 252 255 257 255 254 255 251 250 251 252 255 256
283 284 286 289 294 295 297 298 296 293 293 295 299 299 299 302 300 273 257 240 237 243 254 253 248 260 256 259 259 259 260 260 262 257 255 254 254 254 255 257 259 258 256 254 250 247 250 254 256
281 284 285 287 292 295 298 299 296 293 293 296 299 300 303 304 300 274 256 251 232 233 235 233 231 237 250 257 253 258 262 264 268 265 262 258 254 254 253 253 251 255 256 255 255 251 247 248 253
285 286 287 288 291 294 294 295 292 291 294 296 298 298 302 304 300 275 257 249 235 232 225 226 227 230 242 255 253 251 258 269 268 261 260 258 255 253 253 254 257 256 258 259 257 256 254 255 257
Height
10951 10955 10958 10961 10966 10964 10967 10967 10969 10972 10976 10977 10977 10978 10980 10982 10982 10983 10986 10986 10988 10989 10991 10991 10992 10992 10993 10994 10994 10995 10997 10998 10998 10998 10999 11000 11000 11000 10999 11000 11000 11000 10999 10998 10997 10996 10995 10994 10993
10949 10950 10952 10956 10958 10958 10964 10968 10967 10972 10975 10976 10975 10976 10977 10978 10980 10980 10981 10983 10984 10985 10987 10988 10988 10989 10990 10992 10992 10992 10993 10994 10995 10997 10997 10997 10996 10996 10996 10996 10996 10997 10997 10996 10995 10994 10994 10993 10993
10944 10946 10949 10951 10952 10954 10959 10966 10968 10971 10972 10974 10975 10976 10976 10975 10974 10976 10977 10979 10981 10981 10983 10984 10984 10985 10986 10987 10989 10989 10990 10991 10992 10993 10994 10993 10993 10993 10994 10994 10993 10994 10994 10993 10993 10992 10990 10990 10989
10940 10942 10944 10946 10949 10949 10955 10962 10963 10966 10968 10969 10971 10974 10975 10974 10972 10972 10973 10975 10976 10976 10978 10980 10980 10981 10982 10984 10984 10985 10986 10987 10988 10988 10989 10989 10989 10991 10991 10993 10992 10991 10991 10990 10989 10988 10986 10986 10985
10936 10938 10940 10944 10945 10949 10950 10951 10954 10962 10963 10963 10962 10963 10965 10968 10968 10969 10970 10971 10973 10973 10973 10974 10975 10975 10976 10978 10978 10979 10980 10982 10983 10984 10985 10985 10986 10986 10988 10989 10989 10988 10987 10986 10986 10984 10981 10980 10980
10933 10934 10935 10938 10941 10943 10945 10947 10953 10955 10958 10959 10957 10957 10958 10961 10966 10967 10967 10967 10966 10966 10967 10967 10968 10970 10971 10972 10972 10973 10974 10976 10977 10978 10980 10979 10979 10981 10982 10984 10983 10982 10981 10980 10980 10977 10974 10973 10972
10928 10929 10931 10935 10938 10938 10940 10942 10945 10947 10948 10949 10949 10949 10948 10953 10958 10957 10956 10958 10959 10960 10961 10962 10963 10964 10965 10966 10967 10967 10968 10970 10971 10971 10972 10973 10973 10974 10975 10975 10975 10975 10975 10974 10973 10971 10968 10966 10963
10924 10925 10927 10930 10933 10931 10931 10935 10937 10940 10942 10943 10944 10940 10939 10944 10946 10945 10947 10950 10952 10954 10955 10955 10956 10958 10958 10958 10959 10961 10962 10962 10963 10966 10966 10966 10967 10967 10967 10967 10967 10967 10966 10965 10965 10964 10961 10959 10955
10919 10919 10922 10924 10925 10924 10925 10929 10932 10935 10939 10941 10939 10937 10933 10935 10935 10935 10940 10945 10948 10949 10949 10949 10950 10951 10951 10951 10951 10952 10953 10955 10956 10958 10959 10958 10958 10959 10959 10959 10958 10957 10956 10956 10956 10955 10953 10952 10948
10913 10914 10915 10916 10918 10918 10919 10921 10924 10928 10930 10931 10932 10930 10930 10924 10925 10932 10935 10937 10940 10940 10940 10939 10940 10942 10942 10944 10944 10944 10944 10945 10947 10949 10949 10949 10949 10949 10949 10950 10949 10949 10948 10947 10946 10946 10944 10943 10941
10908 10909 10909 10910 10909 10911 10911 10911 10915 10921 10923 10923 10923 10924 10924 10916 10919 10923 10925 10928 10932 10932 10925 10924 10928 10930 10931 10934 10934 10935 10936 10937 10937 10937 10938 10939 10940 10939 10939 10940 10941 10940 10940 10939 10938 10938 10935 10934 10931
10902 10901 10903 10903 10901 10903 10905 10903 10905 10908 10913 10915 10914 10916 10916 10914 10913 10910 10915 10918 10914 10917 10916 10919 10918 10918 10920 10922 10924 10925 10927 10927 10928 10927 10927 10928 10929 10928 10929 10930 10930 10930 10931 10930 10930 10928 10927 10926 10922
10897 10895 10895 10896 10896 10895 10897 10898 10896 10898 10905 10906 10903 10905 10911 10908 10906 10902 10905 10906 10901 10903 10904 10906 10909 10907 10908 10909 10911 10913 10914 10915 10916 10915 10916 10917 10917 10917 10917 10919 10919 10920 10922 10922 10921 10919 10915 10913 10912
10889 10889 10889 10889 10888 10887 10888 10887 10885 10891 10894 10893 10891 10891 10898 10904 10900 10894 10893 10895 10895 10891 10891 10893 10897 10896 10897 10900 10903 10903 10903 10904 10905 10905 10905 10907 10906 10907 10908 10909 10909 10910 10912 10912 10912 10910 10908 10902 10898
10880 10881 10883 10881 10878 10879 10873 10872 10875 10879 10881 10880 10877 10879 10884 10893 10889 10884 10884 10884 10883 10882 10882 10882 10885 10886 10889 10890 10892 10893 10893 10893 10894 10894 10894 10895 10896 10896 10899 10900 10901 10902 10901 10903 10903 10900 10900 10895 10890
10871 10871 10873 10871 10872 10871 10866 10855 10859 10865 10867 10866 10865 10866 10872 10878 10874 10873 10875 10875 10873 10873 10875 10872 10874 10878 10879 10879 10880 10881 10881 10882 10883 10884 10885 10885 10886 10887 10887 10888 10890 10890 10889 10892 10891 10886 10884 10883 10881
10863 10861 10860 10861 10858 10859 10856 10849 10839 10843 10850 10853 10857 10855 10860 10866 10865 10859 10860 10863 10862 10860 10862 10868 10865 10868 10870 10871 10870 10870 10871 10873 10873 10873 10873 10873 10875 10876 10878 10878 10881 10877 10879 10882 10878 10875 10873 10868 10866
10853 10852 10850 10845 10847 10849 10846 10840 10835 10823 10833 10839 10844 10845 10847 10854 10854 10848 10846 10847 10850 10850 10849 10855 10852 10853 10855 10857 10860 10860 10860 10860 10859 10859 10862 10864 10869 10870 10868 10868 10870 10869 10866 10868 10867 10865 10861 10857 10853
10843 10844 10842 10835 10832 10840 10836 10828 10818 10825 10825 10819 10821 10828 10829 10831 10834 10832 10833 10834 10837 10839 10837 10840 10840 10840 10840 10842 10847 10850 10849 10847 10846 10849 10852 10856 10861 10860 10859 10856 10860 10860 10861 10861 10857 10852 10850 10847 10846
10834 10833 10829 10826 10826 10829 10825 10818 10808 10810 10812 10812 10813 10809 10810 10810 10816 10819 10819 10820 10824 10828 10827 10827 10826 10824 10827 10831 10835 10839 10837 10837 10836 10837 10844 10848 10845 10843 10841 10842 10846 10849 10853 10852 10844 10839 10838 10836 10837
10824 10822 10818 10817 10815 10817 10815 10808 10797 10796 10794 10797 10801 10800 10795 10799 10799 10802 10807 10813 10818 10819 10817 10817 10815 10815 10816 10821 10825 10825 10821 10824 10829 10826 10830 10827 10830 10828 10826 10827 10831 10836 10837 10835 10834 10829 10826 10824 10822
10813 10810 10810 10806 10806 10806 10801 10801 10787 10783 10781 10780 10782 10784 10783 10782 10785 10786 10789 10798 10802 10800 10803 10802 10806 10810 10810 10812 10813 10813 10816 10818 10811 10811 10815 10816 10818 10819 10812 10813 10815 10817 10820 10819 10815 10809 10805 10806 10808
10802 10799 10798 10796 10796 10795 10790 10785 10783 10774 10767 10762 10764 10765 10764 10764 10766 10770 10774 10781 10786 10786 10787 10789 10796 10800 10803 10801 10797 10799 10796 10794 10795 10795 10802 10803 10807 10807 10797 10798 10801 10806 10807 10805 10800 10794 10790 10793 10794
10791 10788 10787 10785 10784 10783 10777 10774 10774 10766 10760 10755 10748 10745 10744 10742 10745 10751 10757 10765 10766 10766 10766 10770 10771 10772 10777 10778 10781 10781 10780 10777 10776 10781 10786 10788 10792 10791 10789 10786 10785 10789 10792 10791 10790 10785 10783 10782 10780
10775 10776 10776 10775 10770 10768 10764 10764 10759 10754 10751 10744 10737 10733 10730 10723 10721 10725 10732 10737 10739 10737 10734 10738 10746 10750 10752 10752 10755 10755 10754 10755 10753 10759 10764 10768 10770 10772 10770 10770 10770 10772 10777 10778 10778 10774 10772 10770 10772
10761 10760 10760 10760 10758 10753 10747 10748 10744 10737 10735 10733 10728 10721 10716 10708 10701 10702 10705 10711 10712 10711 10712 10714 10726 10729 10728 10731 10731 10730 10732 10734 10735 10738 10744 10750 10752 10754 10753 10753 10754 10755 10758 10763 10763 10763 10758 10761 10763
10747 10744 10742 10741 10742 10739 10734 10731 10726 10718 10712 10713 10712 10706 10702 10692 10683 10681 10686 10685 10686 10687 10690 10696 10701 10702 10700 10706 10706 10710 10713 10717 10722 10724 10725 10728 10731 10734 10735 10736 10736 10737 10741 10745 10744 10747 10746 10743 10747
10727 10727 10725 10723 10724 10724 10721 10717 10709 10702 10694 10692 10692 10688 10683 10677 10667 10662 10664 10667 10672 10679 10679 10678 10684 10679 10678 10679 10684 10687 10692 10696 10701 10705 10708 10712 10714 10716 10716 10717 10717 10719 10722 10725 10726 10729 10730 10728 10729
10714 10710 10708 10704 10706 10704 10704 10699 10688 10680 10676 10673 10669 10663 10659 10657 10650 10643 10643 10645 10647 10652 10655 10658 10656 10658 10659 10652 10662 10667 10671 10677 10681 10685 10688 10692 10693 10696 10700 10700 10700 10702 10704 10706 10710 10712 10714 10714 10713
10691 10688 10685 10683 10687 10687 10686 10691 10671 10661 10658 10656 10650 10642 10638 10633 10626 10624 10623 10620 10622 10631 10628 10633 10635 10635 10635 10637 10643 10649 10651 10653 10655 10660 10665 10669 10672 10675 10679 10683 10684 10688 10690 10691 10693 10695 10697 10696 10696